Погода в Биробиджане

Погода в Биробиджане : погода сейчас, прогноз погоды и архив. Всё, что Вы хотите узнать о погоде в Биробиджане!

Хотите узнать прогноз погоды в Биробиджане? Тогда Вам сюда: Погода в Биробиджане

Поиск расширенной информации на нашем сайте:

Другие новости

Новости СМИ2

Главная страница сайта

Новости сайта

03.07.2017

Напоминаем, что на нашем специализированном сайте Метеоцентр.Азия вы можете получить высокодетализированные автоматические прогнозы погоды по пунктам России, СНГ и мира в авиационном формате (включающие направление и скорость ветра, видимость, явления погоды, количество и форму облачности, нижнюю и верхнюю границу облачности).


Погода в Биробиджане - сегодня

Время (UTC), дата Ветер
(°,м/с) 
Видим.   Явления Облачность Т
(°С)
Тd
(°С)
f(%) Тe
(°С)
Pmin
(гПа)
dP
(гПа)
Po
(мм)
O2
(г/м3)
Тmin Tmax R s Состояние
почвы
21 11.12.17 330 (СЗ) 4000 м  слаб. снег  10/0 средняя, верхняя 
[As op|Cs]
-11.8 -15.3 75 -16  1008.9  0.6  749  317  -12.3    18  равномерный
сухой снег
100% 
00 12.12.17 320 (СЗ) 20000 м  {снег}  10/0 верхняя 
[Cs]
-11.7 -16.8 66 -15  1010.5  1.6  750  317           
03 12.12.17 300 (СЗ) 20000 м    9/0 средняя 
[Ac As]
-10.3 -17.4 56 -12  1011.3  0.8  751  316           
06 12.12.17 180 (Ю) 20000 м    3/0 средняя, верхняя 
[Ac trans|Ci fib]
-10.2 -17.1 57 -10  1012  0.8  751  316           
09 12.12.17 220 (ЮЗ) 20000 м    ясно 
-17.7 -21.4 73 -18  1014.5  2.1  753  326    -9.3  0.0     
12 12.12.17 230 (ЮЗ) 20000 м    8/0 средняя 
[Ac As]
-20 -23.3 75 -20  1015.6  0.9  754  329           
15 12.12.17 210 (ЮЗ) 20000 м    9/0 средняя 
[Ac As]
-19.9 -23.1 76 -20  1017.1  1.5  755  330           
18 12.12.17 170 (Ю) 20000 м    10/0 средняя 
[As op]
-18.7 -22.2 74 -19  1018.9  1.8  756  329           
21 12.12.17 230 (ЮЗ) 20000 м    10/0 средняя 
[As trans]
-18.4 -22 73 -19  1020.5  1.6  757  329  -20.7      18  равномерный
сухой снег
100% 
00 13.12.17 240 (ЮЗ) 4000 м  слаб. снег  10/0 средняя 
[As op]
-16.4 -19.9 74 -17  1022.8  2.4  759  327           
03 13.12.17 240 (ЮЗ) 2000 м  слаб. снег  10/0 средняя 
[As op]
-12.8 -15.8 78 -13  1023.6  0.9  760  323           
06 13.12.17 180 (Ю) 2000 м  слаб. снег  10/10 600 м 
[Ns]
-11.2 -14.2 78 -11  1025  1.5  761  321           
09 13.12.17 180 (Ю) 4000 м  слаб. снег  10/0 средняя 
[As op]
-11.7 -13.7 85 -12  1027  762  322    -10.8  0.5     
12 13.12.17 тихо ()   4000 м  слаб. снег  10/0 средняя 
[As op]
-12.3 -14.6 83 -12  1028.1  763  323           
15 13.12.17 200 (Ю) 2000 м  слаб. снег  10/0 средняя 
[As op]
-12.8 -14.6 86 -13  1028.6  0.5  763  324           
18 13.12.17 200 (Ю) 2000 м  слаб. снег  10/0 средняя 
[As op]
-13.3 -15 87 -13  1029.1  0.5  764  325           
21 13.12.17 190 (Ю) 2000 м  слаб. снег  10/10 600 м 
[Ns]
-13.7 -15.5 86 -14  1028.6  0.5  763  325  -13.7    20  равномерный
сухой снег
100% 
00 14.12.17 200 (Ю) 2000 м  слаб. снег  10/0 средняя 
[As op]
-13.7 -15.7 85 -16  1028.7  0.2  764  325  -14.8         
03 14.12.17 240 (ЮЗ) 2000 м  слаб. снег  10/0 средняя 
[As op]
-11.8 -14.7 79 -12  1027.6  -1.1  763  323           
06 14.12.17 220 (ЮЗ) 10 км  слаб. снег  10/0 средняя 
[Ac As]
-11.5 -15 75 -11  1026.6  -1  762  322           
09 14.12.17 240 (ЮЗ) 10 км  слаб. снег  9/0 средняя 
[Ac lent]
-14.4 -17.4 78 -17  1026.4  -0.3  762  325    -10.8     
12 14.12.17 220 (ЮЗ) 10 км  {снег}  6/0 средняя, верхняя 
[Ac trans|Cc]
-18.8 -21.1 82 -19  1026  -0.6  761  331           
15 14.12.17 230 (ЮЗ) 10 км    4/0 средняя 
[Ac trans]
-24.1 -26.2 83 -25  1025.8  -0.4  761  338           
18 14.12.17 тихо ()   10 км    ясно 
-25.1 -27.6 80 -25  1025.3  -0.5  761  339           
21 14.12.17 150 (ЮВ) 10 км    ясно 
-26.7 -29.5 77 -27  1024.5  -0.9  760  341  -26.9    0.0  20  равномерный
сухой снег
100% 
Время (UTC), дата Ветер
(°,м/с) 
Видим.   Явления Облачность Т
(°С)
Тd
(°С)
f(%) Тe
(°С)
Pmin
(гПа)
dP
(гПа)
Po
(мм)
O2
(г/м3)
Тmin Tmax R s Состояние
почвы

Для получения пояснительной информации подведите курсор к названию столбца.

ПОГОДА в Биробиджане - архив

Всё, что Вы хотите узнать о погоде в Биробиджане - удобно и подробно!

Выберите нужную дату (начиная с 1 января 2015* года) и нажмите кнопку "Найти".
Будут отображены архивные сводки погоды по пункту Биробиджан, начиная с указанной даты.


Отображать данные в формате CSV (для использования в таблицах Excel)


Внимание! Наш архив погоды предназначен исключительно для личного некоммерческого использования в познавательных целях. Если Вам необходимы официальные справки о состоянии погоды (для производственных, юридических, коммерческих и т.п. целей), обращайтесь в органы Росгидромета.

*Примечание: данная дата относится к архиву по метеостанциям СССР (Россия, СНГ, Балтия).
Архив по метеостанциям Зарубежной Европы и Азии (кроме Китая) хранится 10 дней, по другим регионам земного шара (Китай, Африка, Америка, Австралия, Океания) - 1 день.

Биробиджан - район местоположения метеостанции


Название, широта, долгота, высота метеостанции:
Биробиджан 48.7°ш. 132.9°д. 80 м над ур. моря [Российская Федерация]

Дополнительная информация

В oтличие oт бoльшинства пoгoдных сайтoв мы публикуем пoдрoбную метеoинфoрмацию в детальнoм прoфессиoнальнoм фoрмате.

Характеристики температуры и влажнoсти вoздуха измеряются на высoте 2 м в тени вдали oт зданий и деревьев.
Скoрoсть ветра измеряется на высoте 10 м (на урoвне рoста челoвека скoрoсть ветра ниже в 1.5-2 раза). Если метеoстанция нахoдится в гoрoде или в лесу, тo скoрoсть ветра занижена на 2-4 м/с пo сравнению с oткрытым местoм. Скoрoсть ветра над акватoриями крупных рек и oзёр, а также на вершинах хoлмoв на 2-5 м/с выше, чем в oбычных услoвиях.
Атмoсфернoе давление в разных тoчках местнoсти мoжет значительнo oтличаться oт давления на метеoстанции, в зависимoсти oт услoвий рельефа (при пoдъёме на 10 м давление пoнижается примернo на 1 мм рт.ст.).